Regional Weather Roundup
Issued by NWS

Home | Current Version | Previous Version | Graphics & Text | Print | Product List | Glossary On
Versions: 1 2 3 4 5 6 7 8 9 10 11 12 13 14 15 16 17 18 19 20 21 22 23 24 25 26 27 28 29 30 31 32 33 34 35 36 37 38 39 40 41 42 43 44 45 46 47 48 49 50
000
ASUS43 KLSX 161457
RWRMO

WEATHER SUMMARY FOR MISSOURI
NATIONAL WEATHER SERVICE SPRINGFIELD MO
1000 AM CDT MON OCT 16 2017

NOTE: "FAIR" INDICATES FEW OR NO CLOUDS BELOW 12,000 FEET WITH NO
       SIGNIFICANT WEATHER AND/OR OBSTRUCTIONS TO VISIBILITY.
       CURRENT SKY AND/OR WEATHER CONDITIONS ARE NOT AVAILABLE FOR
       CHILLICOTHE AND FARMINGTON.

MOZ001>031-035>038-043-044-053-054-161600-
...NORTHERN AND WESTERN MISSOURI...

CITY           SKY/WX    TMP DP  RH WIND       PRES   REMARKS
KANSAS CTY INT SUNNY     54  43  66 SW6       30.40R
LEE`S SUMMIT   SUNNY     54  42  64 W7        30.42R
ST JOSEPH      SUNNY     49  44  83 CALM      30.39S
CHILLICOTHE      N/A     51  43  74 S3        30.40S

$$
MOZ066>068-077>081-088>096-101>105-161600-
...SOUTHWEST MISSOURI...

CITY           SKY/WX    TMP DP  RH WIND       PRES   REMARKS
SPRINGFIELD    SUNNY     54  42  64 CALM      30.43R
JOPLIN         SUNNY     55  43  63 S5        30.44S
BRANSON        SUNNY     54  41  62 CALM      30.45R

$$
MOZ032>034-039>042-045>050-055>058-069>072-161600-
...CENTRAL MISSOURI...

CITY           SKY/WX    TMP DP  RH WIND       PRES   REMARKS
COLUMBIA       NOT AVBL
JEFFERSON CITY SUNNY     50  42  74 CALM      30.42S
ROLLA          SUNNY     54  41  61 CALM      30.42S
SEDALIA        SUNNY     55  42  61 SW7       30.43R
WARRENSBURG    SUNNY     54  41  62 SW5       30.42R

$$
MOZ051-052-059>065-161600-
...EAST CENTRAL MISSOURI...

CITY           SKY/WX    TMP DP  RH WIND       PRES   REMARKS
ST LOUIS INTL  SUNNY     55  46  71 W6        30.41S

$$
MOZ072>076-082>087-097>100-106>115-161600-
...SOUTH CENTRAL AND SOUTHEAST MISSOURI...

CITY           SKY/WX    TMP DP  RH WIND       PRES   REMARKS
CAPE GIRARDEAU SUNNY     55  41  59 N7        30.41R
POPLAR BLUFF   SUNNY     57  43  59 N8        30.41R
WEST PLAINS    SUNNY     56  41  57 NE6       30.43R

$$



USA.gov is the U.S. government's official web portal to all federal, state and local government web resources and services.